Weather in Maslozero

Russia / Republic of Karelia     63°31′45″N   32°51′10″E
temp.,
°C
wind,
m/s
gust,
m/s
humid.,
%
clouds,
%
prec.,
mm/h
press.,
hPa
HPBL,
m
24 june, thu
thu2400:00+17ese3896100 3.3 1014260
03:00+16ese149864 5.8 1013167
06:00+20wsw39913 0.6 1011476
09:00+23wsw576712 0.6 1012976
12:00+23wsw686518 0.0 10131030
15:00+24w585644 0.0 10141486
18:00+22wnw4661100 0.0 10141070
21:00+20n366820 0.0 1014661
25 june, fri
fri2500:00+15nne22960 0.0 101657
03:00+13nne119923 0.0 101617
06:00+15nne12853 0.0 1017260
09:00+20nne225879 0.0 1016772
12:00+24n11435 0.0 10161600
15:00+26ese123651 0.0 10152173
18:00+23sse235295 0.0 1014252
21:00+20ese245896 0.0 1013102
26 june, sat
sat2600:00+18ese386028 0.0 1014272
03:00+16ese267199 0.0 1013184
06:00+16ese278670 1.1 1013202
09:00+20se236993 1.7 1013411
12:00+26se1248100 0.3 10121362
15:00+26nnw2251100 0.4 10111024
18:00+23n23698 1.3 1012455
21:00+20ene25851 2.9 1013116
27 june, sun
sun2700:00+14ne26880 0.0 1014112
03:00+12ne12900 0.0 101639
06:00+15ene13785 0.0 1015160
09:00+21ene235471 0.0 1015508
12:00+25ese224893 0.0 10141126
15:00+27se234598 0.0 10121933
18:00+24ese2660100 0.0 1011239
21:00+21e2367100 0.0 101076
28 june, mon
mon2800:00+20e2473100 0.0 100995
03:00+17ene0088100 0.4 100811
06:00+18nne0092100 4.2 100754
09:00+19ne1290100 4.5 1007193
12:00+23sse1273100 0.0 1006695
15:00+23wsw467432 3.6 10061014
18:00+23wnw477270 1.3 1006827
21:00+19nw3888100 2.1 1007326